This is the latest recevied weather packets stored in our database for station/object NC4M. If no packets are shown the sender has not sent any weather packets the latest 10 day(s).
| Time | Temp. | Humidity | Pressure | Rain* | Wind** | Luminosity | Snow |
|---|---|---|---|---|---|---|---|
| 1777938724 | 24.44° C | 45% | 1004 hPa | 0 mm | - | 47 W/m² | - |
| 1777938421 | 24.44° C | 45% | 1004.2 hPa | 0 mm | - | 49 W/m² | - |
| 1777938119 | 24.44° C | 44% | 1004.2 hPa | 0 mm | - | 38 W/m² | - |
| 1777937814 | 25° C | 44% | 1004.1 hPa | 0 mm | - | 48 W/m² | - |
| 1777937510 | 25° C | 45% | 1004 hPa | 0 mm | - | 66 W/m² | - |
| 1777937208 | 25° C | 46% | 1004.1 hPa | 0 mm | - | 62 W/m² | - |
| 1777936905 | 25.56° C | 43% | 1004.3 hPa | 0 mm | - | 53 W/m² | - |
| 1777936602 | 25.56° C | 44% | 1004.5 hPa | 0 mm | - | 49 W/m² | - |
| 1777936298 | 25.56° C | 43% | 1004.3 hPa | 0 mm | - | 69 W/m² | - |
| 1777935994 | 25.56° C | 40% | 1004.5 hPa | 0 mm | - | 65 W/m² | - |
| 1777935693 | 26.11° C | 44% | 1004.3 hPa | 0 mm | - | 48 W/m² | - |
| 1777935391 | 26.11° C | 43% | 1004.5 hPa | 0 mm | - | 50 W/m² | - |
| 1777935087 | 26.67° C | 41% | 1004.2 hPa | 0 mm | - | 51 W/m² | - |
| 1777934784 | 26.67° C | 42% | 1004.3 hPa | 0 mm | - | 151 W/m² | - |
| 1777934480 | 26.67° C | 42% | 1004.3 hPa | 0 mm | - | 58 W/m² | - |
| 1777934178 | 26.67° C | 39% | 1004 hPa | 0 mm | - | 107 W/m² | - |
| 1777933874 | 27.22° C | 40% | 1004.1 hPa | 0 mm | - | 146 W/m² | - |
| 1777933571 | 27.78° C | 40% | 1004.3 hPa | 0 mm | - | 98 W/m² | - |
| 1777933268 | 27.78° C | 37% | 1004.1 hPa | 0 mm | - | 162 W/m² | - |
| 1777932965 | 28.33° C | 36% | 1004.1 hPa | 0 mm | - | 340 W/m² | - |
| 1777932661 | 28.33° C | 36% | 1004.5 hPa | 0 mm | - | 367 W/m² | - |
| 1777932358 | 27.78° C | 38% | 1004.2 hPa | 0 mm | - | 366 W/m² | - |
| 1777932055 | 28.33° C | 39% | 1004.2 hPa | 0 mm | - | 358 W/m² | - |
| 1777931752 | 28.33° C | 39% | 1004.3 hPa | 0 mm | - | 411 W/m² | - |
| 1777931449 | 28.89° C | 36% | 1004.2 hPa | 0 mm | - | 402 W/m² | - |
* Rain latest hour (hover to see other rain measurements)
** Current wind speed in m/s (hover to see current wind gust speed)